DW5479 Weather Reports


time (UTC)temp
F
wind
direction
speed
knots
gust
knots
rain 1hr
in
rain 24hr
in
rain mn
in
humidity
%
barometer
mb
20260508203055 75 151 1.7 5.2 0.00 0.00 0.00 80 1008.8
20260508201507 75 153 3.5 7.0 0.00 0.00 0.00 79 1008.8
20260508200032 75 143 2.6 6.1 0.00 0.00 0.00 80 1008.9
20260508194548 74 181 2.6 4.3 0.00 0.00 0.00 79 1009.1
20260508193151 75 159 1.7 5.2 0.00 0.00 0.00 80 1009.4
20260508191512 74 158 1.7 7.8 0.00 0.00 0.00 78 1009.5
20260508190025 73 150 0.9 3.5 0.00 0.00 0.00 79 1009.7
20260508184544 72 149 1.7 5.2 0.00 0.00 0.00 79 1010.1
20260508183013 71 149 0.9 4.3 0.00 0.00 0.00 80 1010.3
20260508181546 70 162 1.7 3.5 0.00 0.00 0.00 81 1010.5
20260508180011 70 132 0.9 2.6 0.00 0.00 0.00 81 1010.8
20260508174529 69 146 0.0 3.5 0.00 0.00 0.00 81 1011.0
20260508173045 68 151 0.9 3.5 0.00 0.00 0.00 81 1010.8
20260508171604 68 148 0.9 3.5 0.00 0.00 0.00 81 1011.1
20260508170015 67 169 0.9 3.5 0.00 0.00 0.00 82 1011.3
20260508164532 67 164 0.9 4.3 0.00 0.00 0.00 82 1011.4
20260508163027 66 177 1.7 4.3 0.00 0.00 0.00 83 1011.5
20260508161546 65 168 2.6 5.2 0.00 0.00 0.00 82 1011.7
20260508160058 65 175 1.7 5.2 0.00 0.00 0.00 83 1011.7
20260508154541 64 163 2.6 6.1 0.00 0.00 0.00 83 1011.9
20260508153052 64 149 1.7 5.2 0.00 0.00 0.00 83 1012.3
20260508151506 64 146 2.6 6.1 0.00 0.00 0.00 83 1012.3
20260508150017 64 138 1.7 4.3 0.00 0.00 0.00 82 1012.6
20260508144531 63 158 2.6 7.0 0.00 0.00 0.00 83 1012.5
20260508143046 63 146 2.6 6.1 0.00 0.00 0.00 83 1012.4
20260508141502 63 185 2.6 4.3 0.00 0.00 0.00 83 1012.4
20260508140013 62 166 1.7 6.1 0.00 0.00 0.00 84 1012.3
20260508134529 62 146 1.7 5.2 0.00 0.00 0.00 84 1012.3
20260508133056 62 179 2.6 5.2 0.00 0.00 0.00 84 1012.5
20260508131513 61 158 0.9 3.5 0.00 0.00 0.00 84 1012.3
20260508130045 61 160 0.9 3.5 0.00 0.00 0.00 85 1012.5
20260508124605 61 185 1.7 5.2 0.00 0.00 0.00 85 1012.5
20260508123025 61 182 0.0 3.5 0.00 0.00 0.00 85 1012.6
20260508121532 61 184 1.7 3.5 0.00 0.00 0.00 85 1013.0
20260508120046 61 193 1.7 7.0 0.00 0.00 0.00 85 1012.5
20260508114604 61 187 1.7 4.3 0.00 0.00 0.00 85 1012.2
20260508113040 61 141 2.6 6.1 0.00 0.00 0.00 84 1012.2
20260508111554 62 140 0.9 3.5 0.00 0.00 0.00 82 1012.9
20260508110005 62 155 0.0 4.3 0.00 0.00 0.00 82 1013.2
20260508104535 62 162 0.9 4.3 0.00 0.00 0.00 82 1012.3
20260508103005 62 149 1.7 4.3 0.00 0.00 0.00 81 1012.1
20260508101508 62 170 0.9 5.2 0.00 0.00 0.00 80 1012.1
20260508100022 62 168 0.9 4.3 0.00 0.00 0.00 80 1012.2
20260508094544 62 154 1.7 3.5 0.00 0.00 0.00 80 1013.0
20260508093008 62 203 0.9 4.3 0.00 0.00 0.00 80 1012.8
20260508091518 62 165 1.7 3.5 0.00 0.00 0.00 79 1012.6
20260508090045 62 169 0.9 1.7 0.00 0.00 0.00 78 1013.0
20260508084548 62 165 0.0 3.5 0.00 0.00 0.00 78 1013.1
20260508083011 62 191 0.9 5.2 0.00 0.00 0.00 78 1012.8
20260508081553 62 144 3.5 6.1 0.00 0.00 0.00 78 1012.7
20260508080007 62 150 1.7 4.3 0.00 0.00 0.00 79 1012.7
20260508074526 62 170 0.9 6.1 0.00 0.00 0.00 79 1013.2
20260508073052 62 166 2.6 6.1 0.00 0.00 0.00 78 1013.5
20260508071556 63 147 0.0 3.5 0.00 0.00 0.00 78 1013.2
20260508070009 63 175 0.0 4.3 0.00 0.00 0.00 77 1013.5
20260508064523 63 184 2.6 5.2 0.00 0.00 0.00 77 1013.0
20260508063109 63 157 0.9 6.1 0.00 0.00 0.00 77 1013.2
20260508061509 63 158 2.6 7.8 0.00 0.00 0.00 76 1012.9
20260508060022 63 184 1.7 7.0 0.00 0.00 0.00 77 1013.4
20260508054551 63 158 1.7 4.3 0.00 0.00 0.00 77 1014.6
20260508053021 63 148 1.7 5.2 0.00 0.00 0.00 77 1014.6
20260508051559 63 153 0.9 3.5 0.00 0.00 0.00 76 1015.0
20260508050057 63 171 0.9 4.3 0.00 0.00 0.00 76 1014.0
20260508044508 63 214 3.5 7.8 0.00 0.00 0.00 76 1012.6
20260508043127 63 175 3.5 7.0 0.00 0.00 0.00 76 1012.5
20260508041547 64 180 3.5 7.8 0.00 0.00 0.00 75 1013.2
20260508040002 64 217 3.5 6.1 0.00 0.00 0.00 75 1013.2
20260508034522 64 164 1.7 8.7 0.00 0.00 0.00 75 1014.0
20260508033042 64 164 3.5 7.8 0.00 0.00 0.00 75 1014.2
20260508031506 64 193 2.6 6.1 0.00 0.00 0.00 76 1014.0
20260508030035 64 162 2.6 5.2 0.00 0.00 0.00 77 1013.7
20260508024613 64 193 0.9 3.5 0.00 0.00 0.00 78 1013.6
20260508023014 64 164 0.0 3.5 0.00 0.00 0.00 77 1013.3
20260508021529 64 168 0.9 3.5 0.00 0.00 0.00 76 1013.0
20260508020049 65 168 0.0 1.7 0.00 0.00 0.00 75 1013.0
20260508014520 65 174 0.9 6.1 0.00 0.00 0.00 74 1012.1
20260508013033 65 165 3.5 7.0 0.00 0.00 0.00 73 1011.9
20260508011607 65 188 2.6 7.8 0.00 0.00 0.00 72 1011.7
20260508010022 65 185 3.5 8.7 0.00 0.00 0.00 72 1011.5
20260508004556 66 163 4.3 9.6 0.00 0.00 0.00 71 1012.0
20260508003019 66 152 4.3 9.6 0.00 0.00 0.00 70 1012.5
20260508001542 66 180 5.2 12.2 0.00 0.00 0.00 69 1012.9
20260508000052 66 165 2.6 7.0 0.00 0.00 0.00 70 1013.4
20260507234502 66 173 4.3 8.7 0.00 0.00 0.00 69 1013.4
20260507233022 66 160 2.6 8.7 0.00 0.00 0.00 69 1013.8
20260507231551 67 177 2.6 10.4 0.00 0.00 0.00 70 1013.3
20260507230018 67 176 3.5 10.4 0.00 0.00 0.00 69 1013.7
20260507224533 67 173 2.6 7.8 0.00 0.00 0.00 69 1013.8
20260507223048 67 141 3.5 8.7 0.00 0.00 0.00 69 1013.9
20260507221517 67 172 6.1 10.4 0.00 0.00 0.00 70 1014.2
20260507220054 67 165 3.5 9.6 0.00 0.00 0.00 72 1014.1
20260507214510 67 156 7.0 13.0 0.00 0.00 0.00 72 1014.3
20260507213043 68 188 4.3 13.9 0.00 0.00 0.00 73 1014.2
20260507211602 69 178 6.1 11.3 0.00 0.00 0.00 73 1014.0
20260507210007 68 146 7.0 13.0 0.00 0.00 0.00 71 1013.8
20260507204524 69 178 4.3 12.2 0.00 0.00 0.00 73 1013.6